[[{"header":{"parameterUnit":"m.s-1","parameterCategory":1,"la1":30.2991,"la2":30.254,"lo1":-89.0895,"lo2":-89.0444,"dy":0.0017,"dx":0.0017,"nx":28,"ny":28,"refTime":"2023-10-11T21:00:00:Z","depth":0,"parameterNumber":2,"parameterNumberName":"U-component_of_WINDS"},"data":[0,0,0,0,0,0,0,0,0,0,0,0,0,0,0,0,0,0,0,0,0,0,0,0,0,0,0,0,0,0,0,0,0,0,0,0,0,0,0,0,0,0,0,0,0,0,0,0,0,0,0,0,0,0,0,0,0,0,1.0842,1.0843,0,1.0856,1.0856,1.0856,1.0889,1.089,1.089,1.0891,1.0904,1.0904,1.0903,0,0,0,0,0,0,0,0,0,0,0,0,0,1.0845,1.0845,1.0842,1.0843,1.0843,1.0856,1.0856,1.0856,1.0889,1.089,1.0891,1.0891,1.0904,1.0904,1.0903,0,0,0,0,0,0,0,0,0,0,0,0,0,1.0849,1.0844,1.0842,1.0861,1.0863,1.0855,1.0856,1.0856,1.0889,1.089,1.0891,1.0892,1.0904,1.0904,1.0903,1.0879,0,0,1.0902,1.0902,0,0,0,0,0,0,0,0,1.0849,1.0849,1.0858,1.0859,1.0861,1.0872,1.0861,1.0864,1.0888,1.0879,1.0891,1.0892,1.0892,1.0893,1.0893,1.088,1.088,1.0902,1.0902,1.0901,1.0901,0,0,0,0,0,0,0,1.0849,1.0849,1.0848,1.0858,1.086,1.0868,1.087,1.0862,1.0879,1.088,1.0882,1.0883,1.0894,1.0893,1.0894,1.0881,1.0902,1.0901,1.0901,1.0901,1.0847,1.0845,0,0,0,0,0,0,1.0846,1.0848,1.0847,1.0848,1.0858,1.0867,1.0869,1.0867,1.088,1.0883,1.0882,1.0885,1.0894,1.0894,1.0894,1.0865,1.0901,1.0901,1.0901,1.0848,1.0846,1.0845,0,0,0,0,0,0,1.0846,1.0845,1.0847,1.0849,1.085,1.0866,1.0864,1.0867,1.0867,1.0882,1.0885,1.0879,1.0895,1.0895,1.0882,1.0866,1.0901,1.09,1.0849,1.0847,1.0846,1.0808,0,0,0,0,0,0,1.0846,1.0845,1.0836,1.0848,1.0849,1.0835,1.0863,1.0867,1.0866,1.0869,1.0879,1.0882,1.0895,1.0883,1.0882,1.0866,1.09,1.0851,1.0848,1.0846,1.081,1.0805,1.08,0,0,0,0,0,1.0846,1.0826,1.0836,1.0836,1.0839,1.0834,1.0834,1.085,1.0865,1.0856,1.0865,1.0882,1.0869,1.0881,1.0881,1.0864,1.0852,1.0849,1.0846,1.0813,1.0806,1.08,0,0,0,0,0,0,1.0811,1.0827,1.0839,1.0822,1.0826,1.0839,1.0828,1.0843,1.0843,1.0846,1.0865,1.0867,1.0852,1.0857,1.0871,1.0841,1.0863,1.086,1.0837,1.0831,1.0826,1.0824,1.09,0,0,0,0,0,1.0802,1.0797,1.0811,1.0795,1.0796,1.0812,1.081,1.0822,1.0827,1.0829,1.0838,1.0841,1.0838,1.0835,1.0833,1.0812,1.0814,1.08,1.0795,1.0791,1.0787,1.0775,1.0768,1.0836,1.0836,1.0836,0,0,1.0782,1.079,1.0786,1.0788,1.0793,1.0786,1.0813,1.0805,1.08,1.0828,1.0816,1.0822,1.0828,1.081,1.0803,1.0814,1.0769,1.0788,1.0784,1.0783,1.0771,1.0765,1.0759,1.0835,1.0835,1.0835,0,0,1.0742,1.0749,1.0735,1.0739,1.0745,1.0756,1.0752,1.0763,1.0768,1.0757,1.0776,1.0771,1.0765,1.0768,1.0768,1.0729,1.0743,1.0728,1.07,1.0687,1.0682,1.0677,1.066,1.0655,1.0725,1.0724,1.0724,0,1.0716,1.0707,1.0726,1.0716,1.0716,1.0741,1.0726,1.0729,1.0735,1.0733,1.0747,1.0739,1.0744,1.0727,1.0717,1.0717,1.0713,1.0725,1.0681,1.0676,1.0672,1.0657,1.0651,1.0722,1.0723,1.0723,1.0723,0,1.0674,1.0668,1.0656,1.066,1.0659,1.0647,1.0663,1.0659,1.0671,1.068,1.0667,1.0675,1.0674,1.0671,1.0684,1.0655,1.0662,1.0678,1.0699,1.0663,1.0649,1.0643,1.0719,1.072,1.0721,1.0721,0,0,1.0612,1.0626,1.0621,1.0622,1.0631,1.0626,1.0615,1.0614,1.061,1.0613,1.0603,1.0597,1.0612,1.0612,1.0625,1.0614,1.0579,1.0631,1.0632,1.0619,1.0546,1.0532,1.0525,1.059,1.0589,1.0588,1.0545,0,1.0572,1.0554,1.057,1.0548,1.0541,1.0565,1.0555,1.0559,1.0567,1.0562,1.0571,1.0565,1.0586,1.0586,1.0577,1.0586,1.0565,1.0589,1.0579,1.0579,1.0575,1.0518,1.0504,1.0462,1.054,1.0539,1.0538,0,1.0523,1.0523,1.05,1.0509,1.0507,1.0498,1.0497,1.0493,1.0498,1.0504,1.0505,1.052,1.0509,1.0532,1.0516,1.0532,1.0529,1.0533,1.0532,1.053,1.0554,1.0512,1.0449,1.0442,1.053,1.0531,1.0531,0,1.0477,1.0472,1.0457,1.0458,1.0468,1.0461,1.0465,1.0471,1.0469,1.0469,1.0467,1.0466,1.0464,1.0463,1.0477,1.0493,1.0458,1.0483,1.0462,1.0461,1.0452,1.0451,1.0385,1.0454,1.0454,1.0454,1.0454,0,1.0429,1.0414,1.0436,1.0426,1.0409,1.0428,1.0411,1.0417,1.0422,1.0414,1.0435,1.0427,1.0447,1.0441,1.0452,1.0436,1.0436,1.044,1.0442,1.0436,1.0435,1.0433,1.0435,1.0452,1.0453,1.0453,1.0453,0,1.0374,1.0388,1.0373,1.0384,1.0387,1.0374,1.0383,1.0374,1.0384,1.0373,1.0372,1.0387,1.038,1.0395,1.0391,1.0398,1.0374,1.0383,1.0372,1.0374,1.035,1.0351,1.0278,1.0269,1.0346,1.0345,1.0344,0,1.0341,1.033,1.034,1.0336,1.0338,1.0332,1.033,1.0348,1.0345,1.0348,1.0339,1.0334,1.0331,1.0319,1.0329,1.0326,1.0333,1.0308,1.0332,1.0326,1.0329,1.0329,1.0327,1.0301,1.0301,1.03,1.0299,0,1.0281,1.0289,1.0285,1.0283,1.0279,1.0279,1.028,1.0275,1.0294,1.029,1.0283,1.028,1.0276,1.027,1.0269,1.0272,1.0288,1.0292,1.0286,1.0278,1.0271,1.0272,1.0355,1.0293,1.0293,1.0294,1.0294,1.0294,1.0235,1.0225,1.023,1.0224,1.0227,1.0227,1.0219,1.0227,1.0222,1.0219,1.0231,1.0221,1.0225,1.0225,1.0227,1.0219,1.023,1.0223,1.0221,1.0218,1.0213,1.0275,1.0219,1.022,1.022,1.022,1.022,0,1.0173,1.0178,1.0173,1.0173,1.0168,1.0185,1.0186,1.0181,1.0172,1.0175,1.0171,1.0162,1.0157,1.0166,1.0162,1.0154,1.0161,1.0152,1.0151,1.0151,1.0204,1.0208,1.0146,1.0146,1.0146,1.0146,1.0146,1.0146,1.0141,1.0124,1.0132,1.0117,1.0121,1.0112,1.0111,1.0111,1.0113,1.0102,1.0097,1.0104,1.0109,1.0105,1.01,1.0103,1.01,1.0087,1.0092,1.0141,1.0148,1.0155,1.0159,1.0087,1.0087,1.004,1.004,1.0039]},{"header":{"parameterUnit":"m.s-1","parameterCategory":1,"la1":30.2991,"la2":30.254,"lo1":-89.0895,"lo2":-89.0444,"dy":0.0017,"dx":0.0017,"nx":28,"ny":28,"refTime":"2023-10-11T21:00:00:Z","depth":0,"parameterNumber":3,"parameterNumberName":"V-component_of_WINDS"},"data":[0,0,0,0,0,0,0,0,0,0,0,0,0,0,0,0,0,0,0,0,0,0,0,0,0,0,0,0,0,0,0,0,0,0,0,0,0,0,0,0,0,0,0,0,0,0,0,0,0,0,0,0,0,0,0,0,0,0,-1.0064,-1.0065,0,-1.018,-1.0182,-1.0183,-1.0203,-1.0202,-1.0201,-1.02,-1.0321,-1.0325,-1.0329,0,0,0,0,0,0,0,0,0,0,0,0,0,-0.986,-0.9864,-1.0064,-1.0065,-1.0067,-1.018,-1.0182,-1.0183,-1.0203,-1.0202,-1.02,-1.0199,-1.0319,-1.0324,-1.0329,0,0,0,0,0,0,0,0,0,0,0,0,0,-0.996,-0.9865,-1.0063,-1.009,-1.0094,-1.018,-1.0182,-1.0184,-1.0203,-1.0202,-1.02,-1.0199,-1.0318,-1.0324,-1.033,-1.0398,0,0,-1.0349,-1.0351,0,0,0,0,0,0,0,0,-0.9954,-0.9967,-1.0085,-1.0088,-1.0092,-1.0175,-1.0154,-1.0256,-1.0204,-1.0162,-1.02,-1.0198,-1.0274,-1.0283,-1.0309,-1.0404,-1.0409,-1.0349,-1.0353,-1.0356,-1.0357,0,0,0,0,0,0,0,-0.9947,-0.9962,-1.011,-1.0086,-1.0091,-1.0097,-1.0109,-1.0174,-1.0225,-1.0165,-1.0167,-1.018,-1.0275,-1.0302,-1.0311,-1.0411,-1.0349,-1.0355,-1.0358,-1.0361,-1.057,-1.0572,0,0,0,0,0,0,-0.9935,-0.9956,-1.0106,-1.0113,-1.0018,-1.0102,-1.0116,-1.015,-1.0224,-1.0234,-1.0181,-1.0181,-1.0293,-1.0304,-1.0316,-1.0403,-1.0356,-1.0361,-1.0365,-1.0568,-1.057,-1.0572,0,0,0,0,0,0,-0.9931,-0.9948,-1.0102,-1.0035,-1.0055,-1.0107,-1.0146,-1.0153,-1.0181,-1.0236,-1.0246,-1.02,-1.0292,-1.0307,-1.0378,-1.0407,-1.0364,-1.037,-1.0566,-1.0569,-1.0571,-1.0576,0,0,0,0,0,0,-0.9925,-0.9947,-0.9973,-1.0036,-1.0059,-1.0161,-1.0147,-1.0157,-1.0191,-1.0191,-1.0256,-1.0265,-1.0292,-1.0369,-1.0384,-1.0415,-1.0375,-1.0564,-1.0567,-1.0571,-1.0573,-1.0578,-1.0582,0,0,0,0,0,-0.9917,-0.9969,-0.9974,-0.9992,-1.0092,-1.0163,-1.0176,-1.0205,-1.0193,-1.0221,-1.0256,-1.0263,-1.0401,-1.0376,-1.0393,-1.0426,-1.0562,-1.0566,-1.057,-1.0571,-1.0577,-1.0582,0,0,0,0,0,0,-0.9908,-0.9978,-0.9984,-1.0057,-1.0104,-1.0166,-1.0201,-1.0211,-1.0262,-1.026,-1.0295,-1.0309,-1.0379,-1.0409,-1.038,-1.0497,-1.0481,-1.0488,-1.0475,-1.0481,-1.0486,-1.0478,-1.038,0,0,0,0,0,-0.9915,-0.9965,-1.0023,-1.0083,-1.0106,-1.0149,-1.0181,-1.02,-1.025,-1.027,-1.0311,-1.0359,-1.0414,-1.0449,-1.0502,-1.0577,-1.0592,-1.0608,-1.0613,-1.0616,-1.0624,-1.0668,-1.0676,-1.0586,-1.0586,-1.0586,0,0,-0.9929,-0.9973,-1.0003,-1.0082,-1.012,-1.0173,-1.0166,-1.0222,-1.0262,-1.0278,-1.0348,-1.038,-1.0436,-1.051,-1.0545,-1.0538,-1.0652,-1.0622,-1.0624,-1.063,-1.0673,-1.0681,-1.0689,-1.0589,-1.0588,-1.0588,0,0,-0.9982,-1.0019,-1.0074,-1.0113,-1.0171,-1.0199,-1.0212,-1.0273,-1.0295,-1.0365,-1.0379,-1.0427,-1.052,-1.056,-1.0593,-1.0662,-1.067,-1.0678,-1.0703,-1.0745,-1.0752,-1.0759,-1.0786,-1.0795,-1.0684,-1.0684,-1.0684,0,-0.9992,-1.0072,-1.0101,-1.0157,-1.0192,-1.0209,-1.0265,-1.0301,-1.0374,-1.0398,-1.0389,-1.0506,-1.0545,-1.063,-1.0647,-1.0672,-1.0689,-1.0672,-1.0749,-1.0756,-1.0762,-1.0788,-1.0798,-1.0685,-1.0685,-1.0685,-1.0685,0,-1.0083,-1.0138,-1.0175,-1.0245,-1.0284,-1.034,-1.0378,-1.0414,-1.0429,-1.0459,-1.0531,-1.0579,-1.0643,-1.0663,-1.0678,-1.0751,-1.0745,-1.0742,-1.0726,-1.0771,-1.0796,-1.0806,-1.0686,-1.0686,-1.0685,-1.0685,0,0,-1.0135,-1.022,-1.0233,-1.0266,-1.0331,-1.0375,-1.0432,-1.0494,-1.0525,-1.0574,-1.0624,-1.0702,-1.07,-1.0737,-1.0757,-1.0794,-1.0848,-1.0787,-1.0789,-1.0798,-1.0933,-1.0936,-1.0947,-1.0853,-1.0855,-1.0857,-1.0929,0,-1.0198,-1.0299,-1.0327,-1.0414,-1.0466,-1.0483,-1.0533,-1.0579,-1.0608,-1.0657,-1.0689,-1.0745,-1.0737,-1.076,-1.0797,-1.0833,-1.0876,-1.0828,-1.0901,-1.0904,-1.0889,-1.096,-1.0964,-1.103,-1.0938,-1.094,-1.0941,0,-1.0285,-1.0336,-1.0428,-1.0488,-1.0511,-1.0555,-1.0615,-1.0661,-1.0714,-1.0733,-1.0774,-1.0791,-1.0852,-1.0831,-1.0916,-1.0884,-1.0915,-1.0937,-1.0941,-1.095,-1.0927,-1.0974,-1.1051,-1.1062,-1.0957,-1.0955,-1.0954,0,-1.0316,-1.0408,-1.0476,-1.0503,-1.0573,-1.0605,-1.0636,-1.0687,-1.0723,-1.0775,-1.0799,-1.0857,-1.089,-1.0935,-1.0968,-1.0949,-1.1051,-1.1033,-1.107,-1.1069,-1.1093,-1.1091,-1.1178,-1.1109,-1.1108,-1.1108,-1.1108,0,-1.0385,-1.0441,-1.0491,-1.0533,-1.0597,-1.0628,-1.069,-1.0722,-1.0768,-1.0817,-1.0834,-1.0879,-1.0918,-1.0969,-1.0994,-1.1062,-1.1076,-1.1094,-1.1101,-1.1094,-1.1092,-1.1117,-1.1114,-1.1111,-1.111,-1.111,-1.1109,0,-1.0432,-1.0467,-1.0542,-1.0603,-1.062,-1.0665,-1.0717,-1.0759,-1.0788,-1.085,-1.0866,-1.0913,-1.0974,-1.101,-1.1087,-1.1104,-1.1181,-1.1184,-1.1163,-1.1166,-1.1203,-1.12,-1.1311,-1.1328,-1.1244,-1.1245,-1.1246,0,-1.0475,-1.0518,-1.0584,-1.0618,-1.065,-1.0704,-1.0741,-1.0773,-1.0811,-1.0875,-1.0909,-1.0971,-1.1023,-1.112,-1.1161,-1.1221,-1.1227,-1.1262,-1.1236,-1.1229,-1.1231,-1.1229,-1.1234,-1.1267,-1.1267,-1.1268,-1.1269,0,-1.0547,-1.0563,-1.0615,-1.0674,-1.0718,-1.0766,-1.0814,-1.0841,-1.0881,-1.0923,-1.0986,-1.1026,-1.1105,-1.1167,-1.123,-1.1262,-1.1273,-1.1276,-1.1288,-1.1283,-1.127,-1.128,-1.1177,-1.1274,-1.1273,-1.1273,-1.1273,-1.1272,-1.0596,-1.0636,-1.0689,-1.0747,-1.0786,-1.0831,-1.0874,-1.0908,-1.0961,-1.1028,-1.1044,-1.111,-1.1163,-1.1248,-1.1282,-1.1335,-1.133,-1.1347,-1.1352,-1.1356,-1.1358,-1.126,-1.1347,-1.1346,-1.1346,-1.1346,-1.1346,0,-1.0671,-1.0706,-1.0759,-1.0826,-1.0872,-1.0877,-1.093,-1.0969,-1.1027,-1.1075,-1.1125,-1.1198,-1.1258,-1.1304,-1.1366,-1.14,-1.1407,-1.1415,-1.1415,-1.1422,-1.1359,-1.1343,-1.1409,-1.1409,-1.1409,-1.1409,-1.1409,-1.1409,-1.0717,-1.0786,-1.0808,-1.0897,-1.0931,-1.0997,-1.1027,-1.1069,-1.1107,-1.1188,-1.1238,-1.1267,-1.1315,-1.138,-1.1436,-1.1448,-1.1471,-1.148,-1.1493,-1.1433,-1.1427,-1.142,-1.1406,-1.1484,-1.1484,-1.1553,-1.1553,-1.1554]}]]